Time,TemperatureF,DewpointF,PressureIn,WindDirection,WindDirectionDegrees,WindSpeedMPH,WindSpeedGustMPH,Humidity,HourlyPrecipIn,Conditions,Clouds,dailyrainin,SoftwareType,DateUTC
2013-06-11 00:04:00,65.7,65.7,29.73,SSW,196,0.0,0.0,100,0.00,RA,FEW,0.00,WeatherDisplay:10.37,2013-06-11 04:04:00,
2013-06-11 00:09:00,65.7,65.7,29.73,SSW,212,0.0,0.0,100,0.00,RA,FEW,0.00,WeatherDisplay:10.37,2013-06-11 04:09:00,
2013-06-11 00:14:00,65.7,65.7,29.73,SW,225,0.0,0.0,100,0.00,CLR,FEW,0.00,WeatherDisplay:10.37,2013-06-11 04:14:00,
2013-06-11 00:19:00,65.5,65.5,29.73,SW,218,0.0,0.0,100,0.00,CLR,FEW,0.00,WeatherDisplay:10.37,2013-06-11 04:19:00,
2013-06-11 00:24:00,65.5,65.5,29.73,South,186,0.0,0.0,100,0.00,CLR,FEW,0.00,WeatherDisplay:10.37,2013-06-11 04:24:00,
2013-06-11 00:29:00,65.7,65.7,29.73,SE,140,0.0,0.0,100,0.00,CLR,FEW,0.00,WeatherDisplay:10.37,2013-06-11 04:29:00,
2013-06-11 00:39:00,65.7,65.7,29.73,South,179,0.0,0.0,100,0.00,CLR,FEW,0.00,WeatherDisplay:10.37,2013-06-11 04:39:00,
2013-06-11 00:49:00,65.7,65.7,29.73,SSW,195,0.0,0.0,100,0.00,CLR,FEW,0.00,WeatherDisplay:10.37,2013-06-11 04:49:00,
2013-06-11 00:59:00,65.7,65.7,29.73,South,182,0.0,0.0,100,0.00,CLR,FEW,0.00,WeatherDisplay:10.37,2013-06-11 04:59:00,
2013-06-11 01:04:00,65.7,65.7,29.73,SSE,150,0.0,0.0,100,0.00,CLR,FEW,0.00,WeatherDisplay:10.37,2013-06-11 05:04:00,
2013-06-11 01:09:00,65.7,65.7,29.73,SSE,150,0.0,0.0,100,0.00,CLR,FEW,0.00,WeatherDisplay:10.37,2013-06-11 05:09:00,
2013-06-11 01:14:00,65.7,65.7,29.73,SSE,150,0.0,0.0,100,0.00,CLR,FEW,0.00,WeatherDisplay:10.37,2013-06-11 05:14:00,
2013-06-11 01:19:00,65.7,65.7,29.73,SSE,150,0.0,0.0,100,0.00,CLR,FEW,0.00,WeatherDisplay:10.37,2013-06-11 05:19:00,
2013-06-11 01:24:00,65.7,65.7,29.73,SSE,150,0.0,0.0,100,0.00,CLR,FEW,0.00,WeatherDisplay:10.37,2013-06-11 05:24:00,
2013-06-11 01:29:00,65.7,65.7,29.73,South,175,0.0,0.0,100,0.00,CLR,FEW,0.00,WeatherDisplay:10.37,2013-06-11 05:29:00,
2013-06-11 01:39:00,65.7,65.7,29.73,SW,215,0.0,0.0,100,0.00,CLR,FEW,0.00,WeatherDisplay:10.37,2013-06-11 05:39:00,
2013-06-11 01:44:00,65.7,65.7,29.73,SW,215,0.0,0.0,100,0.00,CLR,FEW,0.00,WeatherDisplay:10.37,2013-06-11 05:44:00,
2013-06-11 01:49:00,65.7,65.7,29.73,SW,215,0.0,0.0,100,0.00,CLR,FEW,0.00,WeatherDisplay:10.37,2013-06-11 05:49:00,
2013-06-11 01:59:00,65.7,65.7,29.73,SW,219,0.0,0.0,100,0.00,CLR,FEW,0.00,WeatherDisplay:10.37,2013-06-11 05:59:00,
2013-06-11 02:04:00,65.7,65.7,29.73,SW,229,0.0,0.0,100,0.00,CLR,FEW,0.00,WeatherDisplay:10.37,2013-06-11 06:04:00,
2013-06-11 02:09:00,65.7,65.7,29.73,SW,214,0.0,0.0,100,0.00,CLR,FEW,0.00,WeatherDisplay:10.37,2013-06-11 06:09:00,
2013-06-11 02:14:00,65.7,65.7,29.73,South,190,0.0,0.0,100,0.00,CLR,FEW,0.00,WeatherDisplay:10.37,2013-06-11 06:14:00,
2013-06-11 02:19:00,65.7,65.7,29.73,SW,230,0.0,0.0,100,0.00,CLR,FEW,0.00,WeatherDisplay:10.37,2013-06-11 06:19:00,
2013-06-11 02:29:00,65.7,65.7,29.73,WSW,246,0.0,0.0,100,0.00,CLR,FEW,0.00,WeatherDisplay:10.37,2013-06-11 06:29:00,
2013-06-11 02:34:00,65.8,65.8,29.73,West,261,0.0,0.0,100,0.00,CLR,FEW,0.00,WeatherDisplay:10.37,2013-06-11 06:34:00,
2013-06-11 02:39:00,65.8,65.8,29.73,West,266,0.0,0.0,100,0.00,CLR,FEW,0.00,WeatherDisplay:10.37,2013-06-11 06:39:00,
2013-06-11 02:49:00,65.8,65.8,29.73,SW,218,0.0,0.0,100,0.00,CLR,FEW,0.00,WeatherDisplay:10.37,2013-06-11 06:49:00,
2013-06-11 02:54:00,65.8,65.8,29.73,WSW,243,0.0,0.0,100,0.00,CLR,FEW,0.00,WeatherDisplay:10.37,2013-06-11 06:54:00,
2013-06-11 02:59:00,65.8,65.8,29.73,WSW,240,0.0,1.0,100,0.00,CLR,FEW,0.00,WeatherDisplay:10.37,2013-06-11 06:59:00,
2013-06-11 03:04:00,65.8,65.8,29.73,SSW,197,0.0,1.0,100,0.00,CLR,FEW,0.00,WeatherDisplay:10.37,2013-06-11 07:04:00,
2013-06-11 03:09:00,65.8,65.8,29.73,SSW,197,0.0,0.0,100,0.00,CLR,FEW,0.00,WeatherDisplay:10.37,2013-06-11 07:09:00,
2013-06-11 03:14:00,65.8,65.8,29.73,SW,219,0.0,0.0,100,0.00,CLR,FEW,0.00,WeatherDisplay:10.37,2013-06-11 07:14:00,
2013-06-11 03:19:00,65.8,65.8,29.73,SW,235,0.0,1.0,100,0.00,CLR,FEW,0.00,WeatherDisplay:10.37,2013-06-11 07:19:00,
2013-06-11 03:29:00,65.8,65.8,29.73,West,268,0.0,1.0,100,0.00,CLR,FEW,0.00,WeatherDisplay:10.37,2013-06-11 07:29:00,
2013-06-11 03:34:00,65.8,65.8,29.73,WSW,256,0.0,1.0,100,0.00,CLR,FEW,0.00,WeatherDisplay:10.37,2013-06-11 07:34:00,
2013-06-11 03:39:00,65.8,65.8,29.73,WSW,240,0.0,1.0,100,0.00,CLR,FEW,0.00,WeatherDisplay:10.37,2013-06-11 07:39:00,
2013-06-11 03:49:00,66.0,66.0,29.73,SW,214,0.0,1.0,100,0.00,CLR,FEW,0.00,WeatherDisplay:10.37,2013-06-11 07:49:00,
2013-06-11 03:59:00,66.0,66.0,29.73,WSW,237,0.0,1.0,100,0.00,CLR,FEW,0.00,WeatherDisplay:10.37,2013-06-11 07:59:00,
2013-06-11 04:04:00,66.0,66.0,29.73,WSW,249,0.0,0.0,100,0.00,CLR,FEW,0.00,WeatherDisplay:10.37,2013-06-11 08:04:00,
2013-06-11 04:09:00,65.8,65.8,29.73,WSW,255,0.0,1.0,100,0.00,CLR,FEW,0.00,WeatherDisplay:10.37,2013-06-11 08:09:00,
2013-06-11 04:19:00,65.8,65.8,29.73,SE,131,0.0,0.0,100,0.00,CLR,FEW,0.00,WeatherDisplay:10.37,2013-06-11 08:19:00,
2013-06-11 04:24:00,65.8,65.8,29.73,South,185,0.0,0.0,100,0.00,CLR,FEW,0.00,WeatherDisplay:10.37,2013-06-11 08:24:00,
2013-06-11 04:29:00,65.8,65.8,29.73,WSW,249,0.0,0.0,100,0.00,CLR,FEW,0.00,WeatherDisplay:10.37,2013-06-11 08:29:00,
2013-06-11 04:39:00,66.0,66.0,29.73,WNW,288,0.0,0.0,100,0.00,CLR,FEW,0.00,WeatherDisplay:10.37,2013-06-11 08:39:00,
2013-06-11 04:44:00,66.0,66.0,29.73,WNW,298,0.0,0.0,100,0.00,CLR,FEW,0.00,WeatherDisplay:10.37,2013-06-11 08:44:00,
2013-06-11 04:49:00,66.0,66.0,29.73,WSW,250,0.0,0.0,100,0.00,CLR,FEW,0.00,WeatherDisplay:10.37,2013-06-11 08:49:00,
2013-06-11 04:54:00,66.0,66.0,29.73,WSW,253,0.0,0.0,100,0.00,CLR,FEW,0.00,WeatherDisplay:10.37,2013-06-11 08:54:00,
2013-06-11 04:59:00,66.2,66.2,29.73,SW,229,0.0,0.0,100,0.00,CLR,FEW,0.00,WeatherDisplay:10.37,2013-06-11 08:59:00,
2013-06-11 05:04:00,66.2,66.2,29.73,SW,234,0.0,0.0,100,0.00,CLR,FEW,0.00,WeatherDisplay:10.37,2013-06-11 09:04:00,
2013-06-11 05:09:00,66.2,66.2,29.73,WSW,246,0.0,1.0,100,0.00,CLR,FEW,0.00,WeatherDisplay:10.37,2013-06-11 09:09:00,
2013-06-11 05:19:00,66.4,66.4,29.73,SSW,212,0.0,1.0,100,0.00,CLR,FEW,0.00,WeatherDisplay:10.37,2013-06-11 09:19:00,
2013-06-11 05:24:00,66.4,66.4,29.73,WSW,239,0.0,3.0,100,0.00,CLR,FEW,0.00,WeatherDisplay:10.37,2013-06-11 09:24:00,
2013-06-11 05:29:00,66.4,66.4,29.73,WSW,253,1.0,3.0,100,0.00,CLR,FEW,0.00,WeatherDisplay:10.37,2013-06-11 09:29:00,
2013-06-11 05:39:00,66.6,66.6,29.73,WSW,239,2.0,6.0,100,0.00,CLR,FEW,0.00,WeatherDisplay:10.37,2013-06-11 09:39:00,
2013-06-11 05:49:00,66.6,66.6,29.73,SW,236,2.0,6.0,100,0.00,CLR,FEW,0.00,WeatherDisplay:10.37,2013-06-11 09:49:00,
2013-06-11 05:59:00,66.7,66.7,29.73,West,268,2.0,6.0,100,0.00,CLR,FEW,0.00,WeatherDisplay:10.37,2013-06-11 09:59:00,
2013-06-11 06:04:00,66.7,66.7,29.73,WSW,242,2.0,6.0,100,0.00,CLR,FEW,0.00,WeatherDisplay:10.37,2013-06-11 10:04:00,
2013-06-11 06:09:00,66.7,66.7,29.73,WSW,251,3.0,4.0,100,0.00,CLR,FEW,0.00,WeatherDisplay:10.37,2013-06-11 10:09:00,
2013-06-11 06:14:00,66.7,66.7,29.73,West,276,2.0,4.0,100,0.00,CLR,FEW,0.00,WeatherDisplay:10.37,2013-06-11 10:14:00,
2013-06-11 06:19:00,66.7,66.7,29.76,West,259,2.0,6.0,100,0.00,CLR,FEW,0.00,WeatherDisplay:10.37,2013-06-11 10:19:00,
2013-06-11 06:29:00,66.9,66.9,29.76,WSW,238,2.0,5.0,100,0.00,CLR,FEW,0.00,WeatherDisplay:10.37,2013-06-11 10:29:00,
2013-06-11 06:39:00,66.9,66.9,29.76,WSW,256,2.0,2.0,100,0.00,CLR,FEW,0.00,WeatherDisplay:10.37,2013-06-11 10:39:00,
2013-06-11 06:49:00,67.1,67.1,29.76,WSW,250,1.0,5.0,100,0.00,CLR,FEW,0.00,WeatherDisplay:10.37,2013-06-11 10:49:00,
2013-06-11 06:59:00,67.1,67.1,29.76,WNW,297,2.0,5.0,100,0.00,CLR,FEW,0.00,WeatherDisplay:10.37,2013-06-11 10:59:00,
2013-06-11 07:04:00,67.1,67.1,29.76,WNW,291,2.0,5.0,100,0.00,CLR,FEW,0.00,WeatherDisplay:10.37,2013-06-11 11:04:00,
2013-06-11 07:09:00,67.1,67.1,29.76,West,281,3.0,5.0,100,0.00,CLR,FEW,0.00,WeatherDisplay:10.37,2013-06-11 11:09:00,
2013-06-11 07:14:00,67.3,67.3,29.76,WNW,296,2.0,5.0,100,0.00,CLR,FEW,0.00,WeatherDisplay:10.37,2013-06-11 11:14:00,
2013-06-11 07:19:00,67.3,67.3,29.76,SSW,204,2.0,2.0,100,0.00,CLR,FEW,0.00,WeatherDisplay:10.37,2013-06-11 11:19:00,
2013-06-11 07:29:00,67.1,67.1,29.79,NNW,341,3.0,4.0,100,0.00,CLR,FEW,0.00,WeatherDisplay:10.37,2013-06-11 11:29:00,
2013-06-11 07:39:00,66.9,66.9,29.79,NNW,330,5.0,7.0,100,0.00,CLR,FEW,0.00,WeatherDisplay:10.37,2013-06-11 11:39:00,
2013-06-11 07:49:00,66.7,66.7,29.79,NNW,338,6.0,15.0,100,0.00,CLR,FEW,0.00,WeatherDisplay:10.37,2013-06-11 11:49:00,
2013-06-11 07:54:00,66.7,66.7,29.79,NNW,338,7.0,15.0,100,0.00,CLR,FEW,0.00,WeatherDisplay:10.37,2013-06-11 11:54:00,
2013-06-11 07:59:00,66.7,66.7,29.79,NNW,330,8.0,15.0,100,0.00,CLR,FEW,0.00,WeatherDisplay:10.37,2013-06-11 11:59:00,
2013-06-11 08:04:00,66.9,66.9,29.79,NNW,336,8.0,8.0,100,0.00,CLR,FEW,0.00,WeatherDisplay:10.37,2013-06-11 12:04:00,
2013-06-11 08:09:00,66.9,66.9,29.79,NNW,340,7.0,7.0,100,0.00,CLR,FEW,0.00,WeatherDisplay:10.37,2013-06-11 12:09:00,
2013-06-11 08:19:00,66.7,66.7,29.79,NW,311,2.0,5.0,100,0.00,CLR,FEW,0.00,WeatherDisplay:10.37,2013-06-11 12:19:00,
2013-06-11 08:29:00,67.1,67.1,29.82,NNW,335,2.0,7.0,100,0.00,CLR,FEW,0.00,WeatherDisplay:10.37,2013-06-11 12:29:00,
2013-06-11 08:34:00,67.1,67.1,29.82,NW,319,2.0,2.0,100,0.00,CLR,FEW,0.00,WeatherDisplay:10.37,2013-06-11 12:34:00,
2013-06-11 08:39:00,66.9,66.9,29.82,NW,312,2.0,2.0,100,0.00,CLR,FEW,0.00,WeatherDisplay:10.37,2013-06-11 12:39:00,
2013-06-11 08:49:00,66.7,66.7,29.82,NW,310,3.0,10.0,100,0.00,CLR,FEW,0.00,WeatherDisplay:10.37,2013-06-11 12:49:00,
2013-06-11 08:59:00,66.9,66.9,29.82,NW,304,3.0,3.0,100,0.00,CLR,FEW,0.00,WeatherDisplay:10.37,2013-06-11 12:59:00,
2013-06-11 09:04:00,66.7,66.7,29.82,WNW,288,2.0,3.0,100,0.00,CLR,FEW,0.00,WeatherDisplay:10.37,2013-06-11 13:04:00,
2013-06-11 09:09:00,66.7,66.7,29.82,West,277,3.0,6.0,100,0.00,CLR,FEW,0.00,WeatherDisplay:10.37,2013-06-11 13:09:00,
2013-06-11 09:19:00,67.1,67.1,29.82,WNW,296,3.0,6.0,100,0.00,CLR,FEW,0.00,WeatherDisplay:10.37,2013-06-11 13:19:00,
2013-06-11 09:24:00,67.1,67.1,29.82,WNW,292,3.0,3.0,100,0.00,CLR,FEW,0.00,WeatherDisplay:10.37,2013-06-11 13:24:00,
2013-06-11 09:29:00,67.3,67.3,29.82,NW,314,2.0,2.0,100,0.00,CLR,FEW,0.00,WeatherDisplay:10.37,2013-06-11 13:29:00,
2013-06-11 09:34:00,67.1,67.1,29.82,NW,310,2.0,2.0,100,0.00,CLR,FEW,0.00,WeatherDisplay:10.37,2013-06-11 13:34:00,
2013-06-11 09:39:00,67.1,67.1,29.82,WNW,302,1.0,1.0,100,0.00,CLR,FEW,0.00,WeatherDisplay:10.37,2013-06-11 13:39:00,
2013-06-11 09:44:00,67.1,67.1,29.82,North,355,1.0,1.0,100,0.00,CLR,FEW,0.00,WeatherDisplay:10.37,2013-06-11 13:44:00,
2013-06-11 09:49:00,67.5,67.5,29.82,North,5,1.0,5.0,100,0.00,CLR,FEW,0.00,WeatherDisplay:10.37,2013-06-11 13:49:00,
2013-06-11 09:54:00,67.5,67.5,29.82,NNW,327,1.0,5.0,100,0.00,CLR,FEW,0.00,WeatherDisplay:10.37,2013-06-11 13:54:00,
2013-06-11 09:55:00,72.5,68.4,29.82,SW,235,0.0,0.0,87,0.00,CLR,FEW,0.00,WeatherDisplay:10.37,2013-06-11 13:55:00,
2013-06-11 09:59:00,67.5,67.5,29.82,NNW,327,1.0,0.0,100,0.00,CLR,FEW,0.00,WeatherDisplay:10.37,2013-06-11 13:59:00,
2013-06-11 10:00:00,72.5,68.7,29.79,SW,235,0.0,0.0,88,0.00,CLR,FEW,0.00,WeatherDisplay:10.37,2013-06-11 14:00:00,
2013-06-11 10:04:00,67.5,67.5,29.82,WNW,285,1.0,3.0,100,0.00,CLR,FEW,0.00,WeatherDisplay:10.37,2013-06-11 14:04:00,
2013-06-11 10:05:00,72.1,68.4,29.79,SW,235,0.0,0.0,88,0.00,CLR,FEW,0.00,WeatherDisplay:10.37,2013-06-11 14:05:00,
2013-06-11 10:09:00,67.6,67.6,29.82,West,281,1.0,3.0,100,0.00,CLR,FEW,0.00,WeatherDisplay:10.37,2013-06-11 14:09:00,
2013-06-11 10:10:00,72.0,68.5,29.82,SW,235,0.0,0.0,89,0.00,CLR,FEW,0.00,WeatherDisplay:10.37,2013-06-11 14:10:00,
2013-06-11 10:15:00,72.0,68.5,29.82,SW,235,0.0,0.0,89,0.00,CLR,FEW,0.00,WeatherDisplay:10.37,2013-06-11 14:15:00,
2013-06-11 10:19:00,67.6,67.6,29.82,WNW,291,1.0,4.0,100,0.00,CLR,FEW,0.00,WeatherDisplay:10.37,2013-06-11 14:19:00,
2013-06-11 10:20:00,71.8,68.4,29.79,SW,235,0.0,0.0,89,0.00,CLR,FEW,0.00,WeatherDisplay:10.37,2013-06-11 14:20:00,
2013-06-11 10:29:00,67.8,67.8,29.82,WNW,299,1.0,2.0,100,0.00,CLR,FEW,0.00,WeatherDisplay:10.37,2013-06-11 14:29:00,
2013-06-11 10:39:00,68.4,68.4,29.82,WNW,295,2.0,5.0,100,0.00,CLR,FEW,0.00,WeatherDisplay:10.37,2013-06-11 14:39:00,
2013-06-11 10:44:00,68.7,68.7,29.82,West,278,1.0,5.0,100,0.00,CLR,FEW,0.00,WeatherDisplay:10.37,2013-06-11 14:44:00,
2013-06-11 10:49:00,68.9,68.9,29.82,West,279,1.0,1.0,100,0.00,CLR,FEW,0.00,WeatherDisplay:10.37,2013-06-11 14:49:00,
2013-06-11 10:54:00,68.9,68.6,29.82,West,280,1.0,1.0,99,0.00,CLR,FEW,0.00,WeatherDisplay:10.37,2013-06-11 14:54:00,
2013-06-11 10:59:00,68.9,68.3,29.82,West,274,1.0,1.0,98,0.00,CLR,FEW,0.00,WeatherDisplay:10.37,2013-06-11 14:59:00,
2013-06-11 11:04:00,69.4,68.9,29.82,WNW,301,0.0,1.0,98,0.00,CLR,FEW,0.00,WeatherDisplay:10.37,2013-06-11 15:04:00,
2013-06-11 11:09:00,69.3,68.4,29.82,NW,319,1.0,7.0,97,0.00,CLR,FEW,0.00,WeatherDisplay:10.37,2013-06-11 15:09:00,
2013-06-11 11:19:00,69.4,67.9,29.82,West,260,2.0,0.0,95,0.00,CLR,FEW,0.00,WeatherDisplay:10.37,2013-06-11 15:19:00,
2013-06-11 11:29:00,69.6,67.5,29.82,NW,317,3.0,9.0,93,0.00,CLR,FEW,0.00,WeatherDisplay:10.37,2013-06-11 15:29:00,
2013-06-11 11:34:00,69.6,67.5,29.82,WNW,300,3.0,6.0,93,0.00,CLR,FEW,0.00,WeatherDisplay:10.37,2013-06-11 15:34:00,
2013-06-11 11:39:00,70.5,67.8,29.82,WNW,295,5.0,6.0,91,0.00,CLR,FEW,0.00,WeatherDisplay:10.37,2013-06-11 15:39:00,
2013-06-11 11:44:00,70.3,66.9,29.82,WNW,300,5.0,5.0,89,0.00,CLR,FEW,0.00,WeatherDisplay:10.37,2013-06-11 15:44:00,
2013-06-11 11:49:00,70.3,66.9,29.82,NW,319,5.0,6.0,89,0.00,CLR,FEW,0.00,WeatherDisplay:10.37,2013-06-11 15:49:00,
2013-06-11 11:54:00,70.3,66.9,29.82,NW,314,5.0,10.0,89,0.00,CLR,FEW,0.00,WeatherDisplay:10.37,2013-06-11 15:54:00,
2013-06-11 11:59:00,71.6,68.2,29.82,NW,307,6.0,10.0,89,0.00,CLR,FEW,0.00,WeatherDisplay:10.37,2013-06-11 15:59:00,
2013-06-11 12:04:00,71.6,67.5,29.82,NW,307,7.0,10.0,87,0.00,CLR,FEW,0.00,WeatherDisplay:10.37,2013-06-11 16:04:00,
2013-06-11 12:09:00,71.2,67.2,29.82,WNW,299,7.0,10.0,87,0.00,CLR,FEW,0.00,WeatherDisplay:10.37,2013-06-11 16:09:00,
2013-06-11 12:19:00,71.8,67.4,29.82,WNW,283,8.0,12.0,86,0.00,CLR,FEW,0.00,WeatherDisplay:10.37,2013-06-11 16:19:00,
2013-06-11 12:29:00,72.5,67.4,29.82,WNW,287,8.0,9.0,84,0.00,CLR,FEW,0.00,WeatherDisplay:10.37,2013-06-11 16:29:00,
2013-06-11 12:34:00,72.0,66.9,29.82,WNW,294,7.0,7.0,84,0.00,CLR,FEW,0.00,WeatherDisplay:10.37,2013-06-11 16:34:00,
2013-06-11 12:39:00,73.2,68.4,29.82,WNW,301,6.0,6.0,85,0.00,CLR,FEW,0.00,WeatherDisplay:10.37,2013-06-11 16:39:00,
2013-06-11 12:49:00,72.0,66.9,29.82,West,269,5.0,5.0,84,0.00,CLR,FEW,0.00,WeatherDisplay:10.37,2013-06-11 16:49:00,
2013-06-11 12:54:00,72.1,67.0,29.82,West,268,3.0,6.0,84,0.00,CLR,FEW,0.00,WeatherDisplay:10.37,2013-06-11 16:54:00,
2013-06-11 12:59:00,71.6,66.5,29.82,WNW,295,5.0,6.0,84,0.00,CLR,FEW,0.00,WeatherDisplay:10.37,2013-06-11 16:59:00,
2013-06-11 13:04:00,71.8,66.7,29.82,NW,306,2.0,2.0,84,0.00,CLR,FEW,0.00,WeatherDisplay:10.37,2013-06-11 17:04:00,
2013-06-11 13:09:00,72.1,67.4,29.82,NW,313,2.0,2.0,85,0.00,CLR,FEW,0.00,WeatherDisplay:10.37,2013-06-11 17:09:00,
2013-06-11 13:19:00,72.1,67.0,29.85,NW,306,2.0,11.0,84,0.00,CLR,FEW,0.00,WeatherDisplay:10.37,2013-06-11 17:19:00,
2013-06-11 13:29:00,73.0,67.2,29.85,WNW,291,7.0,12.0,82,0.00,CLR,FEW,0.00,WeatherDisplay:10.37,2013-06-11 17:29:00,
2013-06-11 13:39:00,73.4,66.9,29.85,WNW,293,9.0,11.0,80,0.00,CLR,FEW,0.00,WeatherDisplay:10.37,2013-06-11 17:39:00,
2013-06-11 13:49:00,73.2,66.7,29.85,West,267,5.0,10.0,80,0.00,CLR,FEW,0.00,WeatherDisplay:10.37,2013-06-11 17:49:00,
2013-06-11 13:59:00,73.9,66.6,29.85,NNW,331,5.0,8.0,78,0.00,CLR,FEW,0.00,WeatherDisplay:10.37,2013-06-11 17:59:00,
2013-06-11 14:04:00,73.9,66.6,29.85,WNW,284,7.0,8.0,78,0.00,CLR,FEW,0.00,WeatherDisplay:10.37,2013-06-11 18:04:00,
2013-06-11 14:09:00,73.9,66.6,29.85,West,270,7.0,8.0,78,0.00,CLR,FEW,0.00,WeatherDisplay:10.37,2013-06-11 18:09:00,
2013-06-11 14:19:00,74.1,66.4,29.85,NW,306,6.0,9.0,77,0.00,CLR,FEW,0.00,WeatherDisplay:10.37,2013-06-11 18:19:00,
2013-06-11 14:29:00,74.7,67.0,29.85,NNW,336,5.0,8.0,77,0.00,CLR,FEW,0.00,WeatherDisplay:10.37,2013-06-11 18:29:00,
2013-06-11 14:34:00,75.4,66.9,29.85,WNW,302,7.0,10.0,75,0.00,CLR,FEW,0.00,WeatherDisplay:10.37,2013-06-11 18:34:00,
2013-06-11 14:39:00,75.4,67.3,29.85,WNW,287,7.0,8.0,76,0.00,CLR,FEW,0.00,WeatherDisplay:10.37,2013-06-11 18:39:00,
2013-06-11 14:49:00,75.9,67.4,29.85,NW,319,7.0,13.0,75,0.00,CLR,FEW,0.00,WeatherDisplay:10.37,2013-06-11 18:49:00,
2013-06-11 14:59:00,75.6,65.9,29.85,WNW,291,5.0,7.0,72,0.00,CLR,FEW,0.00,WeatherDisplay:10.37,2013-06-11 18:59:00,
2013-06-11 15:04:00,75.7,66.1,29.85,WNW,300,6.0,7.0,72,0.00,CLR,FEW,0.00,WeatherDisplay:10.37,2013-06-11 19:04:00,
2013-06-11 15:09:00,75.4,65.3,29.85,NW,310,6.0,12.0,71,0.00,CLR,FEW,0.00,WeatherDisplay:10.37,2013-06-11 19:09:00,
2013-06-11 15:14:00,75.4,64.9,29.82,WNW,300,6.0,12.0,70,0.00,CLR,FEW,0.00,WeatherDisplay:10.37,2013-06-11 19:14:00,
2013-06-11 15:19:00,75.2,65.1,29.82,WNW,299,7.0,12.0,71,0.00,CLR,FEW,0.00,WeatherDisplay:10.37,2013-06-11 19:19:00,
2013-06-11 15:29:00,75.4,66.1,29.85,West,261,7.0,16.0,73,0.00,CLR,FEW,0.00,WeatherDisplay:10.37,2013-06-11 19:29:00,
2013-06-11 15:34:00,75.4,66.1,29.82,West,269,8.0,16.0,73,0.00,CLR,FEW,0.00,WeatherDisplay:10.37,2013-06-11 19:34:00,
2013-06-11 15:39:00,75.0,65.4,29.82,WNW,291,8.0,11.0,72,0.00,CLR,FEW,0.00,WeatherDisplay:10.37,2013-06-11 19:39:00,
2013-06-11 15:49:00,75.4,65.7,29.82,WNW,295,9.0,9.0,72,0.00,CLR,FEW,0.00,WeatherDisplay:10.37,2013-06-11 19:49:00,
2013-06-11 15:59:00,75.4,65.7,29.82,West,262,7.0,7.0,72,0.00,CLR,FEW,0.00,WeatherDisplay:10.37,2013-06-11 19:59:00,
2013-06-11 16:04:00,75.7,66.1,29.82,WSW,256,3.0,3.0,72,0.00,CLR,FEW,0.00,WeatherDisplay:10.37,2013-06-11 20:04:00,
2013-06-11 16:09:00,75.7,66.1,29.82,West,266,2.0,2.0,72,0.00,CLR,FEW,0.00,WeatherDisplay:10.37,2013-06-11 20:09:00,
2013-06-11 16:14:00,76.8,67.5,29.82,WNW,288,1.0,3.0,73,0.00,CLR,FEW,0.00,WeatherDisplay:10.37,2013-06-11 20:14:00,
2013-06-11 16:19:00,76.3,66.2,29.82,WNW,289,2.0,6.0,71,0.00,CLR,FEW,0.00,WeatherDisplay:10.37,2013-06-11 20:19:00,
2013-06-11 16:29:00,76.3,66.6,29.82,WNW,286,6.0,12.0,72,0.00,CLR,FEW,0.00,WeatherDisplay:10.37,2013-06-11 20:29:00,
2013-06-11 16:34:00,76.6,66.9,29.82,West,281,6.0,6.0,72,0.00,CLR,FEW,0.00,WeatherDisplay:10.37,2013-06-11 20:34:00,
2013-06-11 16:39:00,77.2,67.0,29.82,WNW,285,5.0,7.0,71,0.00,CLR,FEW,0.00,WeatherDisplay:10.37,2013-06-11 20:39:00,
2013-06-11 16:49:00,77.2,67.9,29.82,WNW,297,6.0,9.0,73,0.00,CLR,FEW,0.00,WeatherDisplay:10.37,2013-06-11 20:49:00,
2013-06-11 16:54:00,77.2,67.5,29.82,WNW,303,6.0,8.0,72,0.00,CLR,FEW,0.00,WeatherDisplay:10.37,2013-06-11 20:54:00,
2013-06-11 16:59:00,77.4,68.4,29.82,NW,324,7.0,9.0,74,0.00,CLR,FEW,0.00,WeatherDisplay:10.37,2013-06-11 20:59:00,
2013-06-11 17:04:00,77.7,68.8,29.82,NNW,334,7.0,9.0,74,0.00,CLR,FEW,0.00,WeatherDisplay:10.37,2013-06-11 21:04:00,
2013-06-11 17:09:00,77.5,67.4,29.82,NNW,342,5.0,5.0,71,0.00,CLR,FEW,0.00,WeatherDisplay:10.37,2013-06-11 21:09:00,
2013-06-11 17:19:00,77.7,68.4,29.82,NW,310,3.0,5.0,73,0.00,CLR,FEW,0.00,WeatherDisplay:10.37,2013-06-11 21:19:00,
2013-06-11 17:29:00,77.7,68.8,29.82,West,280,3.0,7.0,74,0.00,CLR,FEW,0.00,WeatherDisplay:10.37,2013-06-11 21:29:00,
2013-06-11 17:39:00,77.5,68.2,29.79,WNW,291,3.0,6.0,73,0.00,CLR,FEW,0.00,WeatherDisplay:10.37,2013-06-11 21:39:00,
2013-06-11 17:49:00,77.5,68.2,29.82,WNW,284,3.0,8.0,73,0.00,CLR,FEW,0.00,WeatherDisplay:10.37,2013-06-11 21:49:00,
2013-06-11 17:54:00,77.4,67.6,29.82,WNW,298,5.0,8.0,72,0.00,CLR,FEW,0.00,WeatherDisplay:10.37,2013-06-11 21:54:00,
2013-06-11 17:59:00,77.5,67.8,29.82,WNW,290,6.0,8.0,72,0.00,CLR,FEW,0.00,WeatherDisplay:10.37,2013-06-11 21:59:00,
2013-06-11 18:04:00,77.5,67.4,29.82,WNW,295,5.0,5.0,71,0.00,CLR,FEW,0.00,WeatherDisplay:10.37,2013-06-11 22:04:00,
2013-06-11 18:09:00,77.5,67.4,29.82,WNW,300,5.0,5.0,71,0.00,CLR,FEW,0.00,WeatherDisplay:10.37,2013-06-11 22:09:00,
2013-06-11 18:19:00,77.5,67.8,29.82,WNW,282,5.0,8.0,72,0.00,CLR,FEW,0.00,WeatherDisplay:10.37,2013-06-11 22:19:00,
2013-06-11 18:29:00,77.4,68.0,29.79,NW,322,6.0,7.0,73,0.00,CLR,FEW,0.00,WeatherDisplay:10.37,2013-06-11 22:29:00,
2013-06-11 18:39:00,77.2,68.2,29.79,WSW,258,5.0,5.0,74,0.00,CLR,FEW,0.00,WeatherDisplay:10.37,2013-06-11 22:39:00,
2013-06-11 18:49:00,77.0,68.9,29.79,West,278,3.0,5.0,76,0.00,CLR,FEW,0.00,WeatherDisplay:10.37,2013-06-11 22:49:00,
2013-06-11 18:54:00,76.8,68.7,29.79,WNW,297,3.0,6.0,76,0.00,CLR,FEW,0.00,WeatherDisplay:10.37,2013-06-11 22:54:00,
2013-06-11 18:59:00,77.4,68.8,29.79,West,272,3.0,6.0,75,0.00,CLR,FEW,0.00,WeatherDisplay:10.37,2013-06-11 22:59:00,
2013-06-11 19:04:00,76.6,68.9,29.79,West,279,3.0,3.0,77,0.00,CLR,FEW,0.00,WeatherDisplay:10.37,2013-06-11 23:04:00,
2013-06-11 19:09:00,76.6,68.9,29.79,West,269,2.0,2.0,77,0.00,CLR,FEW,0.00,WeatherDisplay:10.37,2013-06-11 23:09:00,
2013-06-11 19:14:00,76.8,68.7,29.79,WSW,245,1.0,1.0,76,0.00,CLR,FEW,0.00,WeatherDisplay:10.37,2013-06-11 23:14:00,
2013-06-11 19:19:00,76.5,69.5,29.79,WSW,245,0.0,1.0,79,0.00,CLR,FEW,0.00,WeatherDisplay:10.37,2013-06-11 23:19:00,
2013-06-11 19:24:00,76.3,69.3,29.79,WSW,242,0.0,0.0,79,0.00,CLR,FEW,0.00,WeatherDisplay:10.37,2013-06-11 23:24:00,
2013-06-11 19:29:00,75.9,68.9,29.79,SW,235,0.0,0.0,79,0.00,CLR,FEW,0.00,WeatherDisplay:10.37,2013-06-11 23:29:00,
2013-06-11 19:39:00,75.4,68.8,29.79,SW,235,0.0,0.0,80,0.00,CLR,FEW,0.00,WeatherDisplay:10.37,2013-06-11 23:39:00,
2013-06-11 19:49:00,74.7,68.4,29.79,SW,235,0.0,0.0,81,0.00,CLR,FEW,0.00,WeatherDisplay:10.37,2013-06-11 23:49:00,
2013-06-11 19:59:00,74.7,69.5,29.79,SW,235,0.0,0.0,84,0.00,CLR,FEW,0.00,WeatherDisplay:10.37,2013-06-11 23:59:00,
2013-06-11 20:04:00,74.3,69.1,29.79,SW,235,0.0,0.0,84,0.00,CLR,FEW,0.00,WeatherDisplay:10.37,2013-06-12 00:04:00,
2013-06-11 20:09:00,74.1,69.0,29.79,SW,235,0.0,0.0,84,0.00,CLR,FEW,0.00,WeatherDisplay:10.37,2013-06-12 00:09:00,
2013-06-11 20:19:00,73.8,68.6,29.79,SW,235,0.0,0.0,84,0.00,CLR,FEW,0.00,WeatherDisplay:10.37,2013-06-12 00:19:00,
2013-06-11 20:24:00,73.6,68.4,29.79,SW,235,0.0,0.0,84,0.00,CLR,FEW,0.00,WeatherDisplay:10.37,2013-06-12 00:24:00,
2013-06-11 20:29:00,73.4,68.6,29.79,SW,235,0.0,0.0,85,0.00,CLR,FEW,0.00,WeatherDisplay:10.37,2013-06-12 00:29:00,
2013-06-11 20:39:00,73.2,69.1,29.82,SW,235,0.0,0.0,87,0.00,CLR,FEW,0.00,WeatherDisplay:10.37,2013-06-12 00:39:00,
2013-06-11 20:49:00,72.3,68.2,29.82,SW,235,0.0,0.0,87,0.00,CLR,FEW,0.00,WeatherDisplay:10.37,2013-06-12 00:49:00,